Data No.,UTC Date,UTC Time,Latitude,Longitude,Course(deg),Temp(degC),Sal(psu)
13,2017/9/7,19:22:00,35-35.45N,139-47.09E,161,23.516,25.714
14,2017/9/7,19:23:00,35-35.30N,139-47.22E,144,23.444,25.3452
15,2017/9/7,19:24:00,35-35.13N,139-47.36E,144,23.106,24.5653
16,2017/9/7,19:25:00,35-34.95N,139-47.52E,142,23.154,26.7886
17,2017/9/7,19:26:00,35-34.79N,139-47.71E,135,23.08,26.8476
18,2017/9/7,19:27:00,35-34.63N,139-47.90E,136,23.225,26.8468
19,2017/9/7,19:28:00,35-34.47N,139-48.11E,130,23.109,27.0004
20,2017/9/7,19:29:00,35-34.31N,139-48.35E,128,23.169,26.5426
21,2017/9/7,19:30:00,35-34.14N,139-48.60E,129,23.169,27.1814
22,2017/9/7,19:31:00,35-33.98N,139-48.87E,123,23.095,27.1192
23,2017/9/7,19:32:00,35-33.83N,139-49.18E,123,23.181,27.439
24,2017/9/7,19:33:00,35-33.66N,139-49.46E,127,23.308,27.7149
25,2017/9/7,19:34:00,35-33.48N,139-49.75E,126,23.357,26.9435
26,2017/9/7,19:35:00,35-33.31N,139-50.04E,126,23.476,26.7738
27,2017/9/7,19:36:00,35-33.12N,139-50.32E,134,23.615,27.2707
28,2017/9/7,19:37:00,35-32.89N,139-50.58E,137,23.627,27.218
29,2017/9/7,19:38:00,35-32.64N,139-50.78E,156,23.569,26.4599
30,2017/9/7,19:39:00,35-32.34N,139-50.84E,172,23.617,27.1626
31,2017/9/7,19:40:00,35-32.03N,139-50.89E,172,23.654,27.2345
32,2017/9/7,19:41:00,35-31.72N,139-50.93E,172,23.644,28.6051
33,2017/9/7,19:42:00,35-31.42N,139-50.98E,172,23.637,29.1861
34,2017/9/7,19:43:00,35-31.10N,139-51.03E,173,23.62,29.4625
35,2017/9/7,19:44:00,35-30.78N,139-51.08E,172,23.614,29.6269
36,2017/9/7,19:45:00,35-30.47N,139-51.12E,173,23.606,29.7624
37,2017/9/7,19:46:00,35-30.14N,139-51.14E,184,23.609,29.7799
38,2017/9/7,19:47:00,35-29.85N,139-50.99E,208,23.604,29.7864
39,2017/9/7,19:48:00,35-29.57N,139-50.80E,209,23.571,29.7593
40,2017/9/7,19:49:00,35-29.29N,139-50.61E,209,23.521,29.8585
41,2017/9/7,19:50:00,35-29.01N,139-50.41E,208,23.487,29.9756
42,2017/9/7,19:51:00,35-28.73N,139-50.19E,217,23.454,30.0644
43,2017/9/7,19:52:00,35-28.49N,139-49.93E,222,23.439,30.0998
44,2017/9/7,19:53:00,35-28.28N,139-49.63E,232,23.437,30.1957
45,2017/9/7,19:54:00,35-28.08N,139-49.31E,232,23.497,30.2499
46,2017/9/7,19:55:00,35-27.88N,139-49.00E,232,23.501,30.2429
47,2017/9/7,19:56:00,35-27.67N,139-48.68E,232,23.498,30.2491
48,2017/9/7,19:57:00,35-27.48N,139-48.36E,232,23.502,30.2992
49,2017/9/7,19:58:00,35-27.28N,139-48.04E,232,23.488,30.333
50,2017/9/7,19:59:00,35-27.08N,139-47.73E,232,23.469,30.37
51,2017/9/7,20:00:00,35-26.88N,139-47.40E,237,23.482,30.3671
52,2017/9/7,20:01:00,35-26.72N,139-47.05E,239,23.551,30.2039
53,2017/9/7,20:02:00,35-26.55N,139-46.71E,239,23.612,29.8526
54,2017/9/7,20:03:00,35-26.39N,139-46.37E,239,23.618,29.6543
55,2017/9/7,20:04:00,35-26.22N,139-46.02E,239,23.592,29.715
56,2017/9/7,20:05:00,35-26.03N,139-45.70E,233,23.585,29.7053
57,2017/9/7,20:06:00,35-25.83N,139-45.39E,232,23.578,29.7757
58,2017/9/7,20:07:00,35-25.63N,139-45.06E,232,23.56,29.7599
59,2017/9/7,20:08:00,35-25.43N,139-44.75E,233,23.557,29.7839
60,2017/9/7,20:09:00,35-25.24N,139-44.42E,233,23.546,29.7922
61,2017/9/7,20:10:00,35-25.03N,139-44.10E,233,23.535,29.7512
62,2017/9/7,20:11:00,35-24.84N,139-43.77E,233,23.527,29.7773
63,2017/9/7,20:12:00,35-24.64N,139-43.45E,233,23.51,29.8009
64,2017/9/7,20:13:00,35-24.43N,139-43.14E,224,23.494,29.7777
65,2017/9/7,20:14:00,35-24.16N,139-42.96E,206,23.479,29.914
66,2017/9/7,20:15:00,35-23.88N,139-42.79E,206,23.462,29.9101
67,2017/9/7,20:16:00,35-23.59N,139-42.62E,206,23.438,29.9746
68,2017/9/7,20:17:00,35-23.29N,139-42.45E,205,23.442,30.03
69,2017/9/7,20:18:00,35-22.99N,139-42.35E,189,23.408,30.2158
70,2017/9/7,20:19:00,35-22.67N,139-42.32E,181,23.388,30.408
71,2017/9/7,20:20:00,35-22.36N,139-42.33E,176,23.347,30.478
72,2017/9/7,20:21:00,35-22.03N,139-42.36E,175,23.324,30.5697
73,2017/9/7,20:22:00,35-21.71N,139-42.39E,175,23.304,30.6826
74,2017/9/7,20:23:00,35-21.38N,139-42.42E,175,23.301,30.7723
75,2017/9/7,20:24:00,35-21.05N,139-42.45E,175,23.28,30.8265
76,2017/9/7,20:25:00,35-20.74N,139-42.44E,191,23.283,30.8389
77,2017/9/7,20:26:00,35-20.49N,139-42.35E,194,23.223,30.9206
78,2017/9/7,20:27:00,35-20.27N,139-42.29E,190,23.2,30.9413
79,2017/9/7,20:28:00,35-20.07N,139-42.30E,170,23.239,31.1064
80,2017/9/7,20:29:00,35-19.89N,139-42.40E,148,23.257,31.0922
81,2017/9/7,20:30:00,35-19.74N,139-42.53E,145,23.142,31.0011
82,2017/9/7,20:31:00,35-19.58N,139-42.67E,144,23.08,31.1585
83,2017/9/7,20:32:00,35-19.41N,139-42.82E,143,23.042,31.523
84,2017/9/7,20:33:00,35-19.25N,139-42.96E,144,23.02,31.6904
85,2017/9/7,20:34:00,35-19.09N,139-43.11E,142,23.067,31.8547
86,2017/9/7,20:35:00,35-18.92N,139-43.26E,143,23.081,31.8332
87,2017/9/7,20:36:00,35-18.75N,139-43.41E,143,23.037,31.6799
88,2017/9/7,20:37:00,35-18.59N,139-43.56E,144,22.797,31.7138
89,2017/9/7,20:38:00,35-18.42N,139-43.70E,145,22.628,32.0789
90,2017/9/7,20:39:00,35-18.26N,139-43.84E,144,22.597,32.4639
91,2017/9/7,20:40:00,35-18.09N,139-43.98E,145,22.503,32.6168
92,2017/9/7,20:41:00,35-17.92N,139-44.12E,145,22.597,32.6856
93,2017/9/7,20:42:00,35-17.76N,139-44.26E,145,22.613,32.8005
94,2017/9/7,20:43:00,35-17.59N,139-44.41E,145,22.588,32.8474
95,2017/9/7,20:44:00,35-17.43N,139-44.55E,143,22.58,32.8707
96,2017/9/7,20:45:00,35-17.26N,139-44.69E,145,22.595,32.9593
97,2017/9/7,20:46:00,35-17.09N,139-44.83E,143,22.608,32.9071
98,2017/9/7,20:47:00,35-16.93N,139-44.98E,144,22.692,32.776
99,2017/9/7,20:48:00,35-16.77N,139-45.12E,144,22.757,32.868
100,2017/9/7,20:49:00,35-16.61N,139-45.27E,143,22.793,32.8826
101,2017/9/7,20:50:00,35-16.44N,139-45.41E,144,22.837,32.8819
102,2017/9/7,20:51:00,35-16.27N,139-45.57E,142,22.856,32.9189
103,2017/9/7,20:52:00,35-16.11N,139-45.71E,143,22.901,32.9105
104,2017/9/7,20:53:00,35-15.94N,139-45.86E,143,22.921,32.9958
105,2017/9/7,20:54:00,35-15.78N,139-46.01E,142,22.959,33.0034
106,2017/9/7,20:55:00,35-15.61N,139-46.17E,145,23.005,33.0268
107,2017/9/7,20:56:00,35-15.42N,139-46.27E,161,23.058,33.1192
108,2017/9/7,20:57:00,35-15.21N,139-46.29E,178,23.007,33.19
109,2017/9/7,20:58:00,35-15.00N,139-46.29E,180,23.07,33.1328
110,2017/9/7,20:59:00,35-14.80N,139-46.29E,181,23.073,33.1008
111,2017/9/7,21:00:00,35-14.58N,139-46.28E,181,23.06,33.1083
112,2017/9/7,21:01:00,35-14.37N,139-46.28E,181,23.069,33.0422
113,2017/9/7,21:02:00,35-14.17N,139-46.28E,180,23.152,32.9719
114,2017/9/7,21:03:00,35-13.96N,139-46.27E,181,23.271,33.06
115,2017/9/7,21:04:00,35-13.76N,139-46.27E,181,23.254,33.2085
116,2017/9/7,21:05:00,35-13.56N,139-46.26E,182,23.183,33.1924
117,2017/9/7,21:06:00,35-13.36N,139-46.25E,181,23.272,33.0939
118,2017/9/7,21:07:00,35-13.16N,139-46.25E,181,23.307,33.0023
119,2017/9/7,21:08:00,35-12.95N,139-46.24E,181,23.342,33.0464
120,2017/9/7,21:09:00,35-12.74N,139-46.23E,180,23.359,33.0239
121,2017/9/7,21:10:00,35-12.47N,139-46.17E,194,23.329,33.0223
122,2017/9/7,21:11:00,35-12.21N,139-46.09E,193,23.437,32.9333
123,2017/9/7,21:12:00,35-11.93N,139-46.02E,192,23.427,33.0644
124,2017/9/7,21:13:00,35-11.68N,139-45.95E,192,23.43,33.1805
125,2017/9/7,21:14:00,35-11.38N,139-45.87E,192,23.494,33.1846
126,2017/9/7,21:15:00,35-11.08N,139-45.78E,193,23.585,33.2216
127,2017/9/7,21:16:00,35-10.72N,139-45.68E,193,23.666,33.2946
128,2017/9/7,21:17:00,35-10.45N,139-45.59E,193,23.742,33.3861
129,2017/9/7,21:18:00,35-10.15N,139-45.51E,193,23.888,33.4608
130,2017/9/7,21:19:00,35-09.84N,139-45.42E,193,24.098,33.4836
131,2017/9/7,21:20:00,35-09.52N,139-45.32E,193,24.156,33.6777
132,2017/9/7,21:21:00,35-09.20N,139-45.23E,193,24.25,33.7102
133,2017/9/7,21:22:00,35-08.87N,139-45.13E,193,24.345,33.7327
134,2017/9/7,21:23:00,35-08.55N,139-45.04E,194,24.356,33.8129
135,2017/9/7,21:24:00,35-08.23N,139-44.94E,193,24.376,33.8542
136,2017/9/7,21:25:00,35-07.90N,139-44.84E,193,24.326,33.9163
137,2017/9/7,21:26:00,35-07.58N,139-44.74E,193,24.302,33.926
138,2017/9/7,21:27:00,35-07.26N,139-44.66E,192,24.32,33.9358
139,2017/9/7,21:28:00,35-06.93N,139-44.56E,193,24.32,33.9272
140,2017/9/7,21:29:00,35-06.60N,139-44.46E,195,24.356,33.9223
141,2017/9/7,21:30:00,35-06.27N,139-44.35E,194,24.368,33.9199
142,2017/9/7,21:31:00,35-05.95N,139-44.22E,201,24.313,33.9167
143,2017/9/7,21:32:00,35-05.63N,139-44.10E,194,24.282,33.9217
144,2017/9/7,21:33:00,35-05.30N,139-44.01E,193,24.255,33.9361
145,2017/9/7,21:34:00,35-04.96N,139-43.93E,190,23.826,33.9743
146,2017/9/7,21:35:00,35-04.62N,139-43.85E,190,23.734,33.8812
147,2017/9/7,21:36:00,35-04.26N,139-43.78E,188,23.651,33.6519
148,2017/9/7,21:37:00,35-03.91N,139-43.72E,186,24.207,33.5817
149,2017/9/7,21:38:00,35-03.55N,139-43.68E,185,24.45,33.5821
150,2017/9/7,21:39:00,35-03.18N,139-43.64E,185,24.472,33.7263
151,2017/9/7,21:40:00,35-02.81N,139-43.60E,185,24.443,33.7455
152,2017/9/7,21:41:00,35-02.44N,139-43.56E,184,24.483,33.7004
153,2017/9/7,21:42:00,35-02.05N,139-43.52E,184,24.52,33.7398
154,2017/9/7,21:43:00,35-01.66N,139-43.47E,186,24.642,33.7782
155,2017/9/7,21:44:00,35-01.28N,139-43.43E,184,24.322,33.864
156,2017/9/7,21:45:00,35-00.89N,139-43.39E,184,25.872,33.7022
157,2017/9/7,21:46:00,35-00.51N,139-43.36E,183,26.51,33.9158
158,2017/9/7,21:47:00,35-00.11N,139-43.34E,182,26.663,34.1796
159,2017/9/7,21:48:00,34-59.71N,139-43.31E,183,26.714,34.26
160,2017/9/7,21:49:00,34-59.30N,139-43.28E,183,26.711,34.2459
161,2017/9/7,21:50:00,34-58.91N,139-43.26E,181,26.587,34.2228
162,2017/9/7,21:51:00,34-58.50N,139-43.28E,176,26.697,34.2133
163,2017/9/7,21:52:00,34-58.10N,139-43.34E,166,26.742,34.2072
164,2017/9/7,21:53:00,34-57.76N,139-43.58E,145,26.841,34.2174
165,2017/9/7,21:54:00,34-57.43N,139-43.86E,144,26.843,34.2216
166,2017/9/7,21:55:00,34-57.09N,139-44.16E,144,26.81,34.2194
167,2017/9/7,21:56:00,34-56.75N,139-44.45E,144,26.779,34.2162
168,2017/9/7,21:57:00,34-56.41N,139-44.74E,144,26.812,34.2212
169,2017/9/7,21:58:00,34-56.05N,139-45.03E,146,26.785,34.2174
170,2017/9/7,21:59:00,34-55.70N,139-45.31E,146,26.727,34.2224
171,2017/9/7,22:00:00,34-55.33N,139-45.58E,149,25.948,34.2249
172,2017/9/7,22:01:00,34-54.98N,139-45.86E,145,24.09,34.194
173,2017/9/7,22:02:00,34-54.64N,139-46.15E,144,24.819,34.0637
174,2017/9/7,22:03:00,34-54.29N,139-46.45E,145,26.365,34.0323
175,2017/9/7,22:04:00,34-53.95N,139-46.73E,146,26.672,34.1562
176,2017/9/7,22:05:00,34-53.60N,139-47.01E,147,26.619,34.2123
177,2017/9/7,22:06:00,34-53.23N,139-47.29E,147,26.689,34.2127
178,2017/9/7,22:07:00,34-52.87N,139-47.57E,147,26.697,34.215
179,2017/9/7,22:08:00,34-52.51N,139-47.85E,147,26.756,34.2243
180,2017/9/7,22:09:00,34-52.13N,139-48.14E,147,26.796,34.2304
181,2017/9/7,22:10:00,34-51.76N,139-48.42E,147,26.777,34.2313
182,2017/9/7,22:11:00,34-51.40N,139-48.69E,147,26.796,34.2282
183,2017/9/7,22:12:00,34-51.11N,139-49.05E,125,26.783,34.226
184,2017/9/7,22:13:00,34-50.94N,139-49.50E,113,26.75,34.2268
185,2017/9/7,22:14:00,34-50.78N,139-49.97E,111,26.775,34.2227
186,2017/9/7,22:15:00,34-50.62N,139-50.45E,111,26.72,34.2186
187,2017/9/7,22:16:00,34-50.50N,139-50.93E,105,26.73,34.2138
188,2017/9/7,22:17:00,34-50.39N,139-51.44E,103,26.695,34.2142
189,2017/9/7,22:18:00,34-50.30N,139-51.94E,103,26.692,34.2096
190,2017/9/7,22:19:00,34-50.20N,139-52.46E,103,26.665,34.2119
191,2017/9/7,22:20:00,34-50.10N,139-52.95E,101,26.626,34.2104
192,2017/9/7,22:21:00,34-50.06N,139-53.46E,92,26.628,34.2118
193,2017/9/7,22:22:00,34-50.06N,139-53.97E,90,26.567,34.2106
194,2017/9/7,22:23:00,34-50.07N,139-54.46E,83,26.538,34.2112
195,2017/9/7,22:24:00,34-50.18N,139-54.92E,72,26.507,34.2103
196,2017/9/7,22:25:00,34-50.33N,139-55.37E,66,26.434,34.2059
197,2017/9/7,22:26:00,34-50.49N,139-55.81E,66,26.148,34.209
198,2017/9/7,22:27:00,34-50.66N,139-56.23E,64,25.597,34.1999
199,2017/9/7,22:28:00,34-50.83N,139-56.67E,63,25.209,34.1557
200,2017/9/7,22:29:00,34-50.99N,139-57.10E,64,25.306,34.1201
201,2017/9/7,22:30:00,34-51.17N,139-57.54E,63,25.474,34.1482
202,2017/9/7,22:31:00,34-51.33N,139-57.95E,64,25.375,34.1977
203,2017/9/7,22:32:00,34-51.49N,139-58.37E,65,25.358,34.2058
204,2017/9/7,22:33:00,34-51.65N,139-58.80E,65,25.398,34.1976
205,2017/9/7,22:34:00,34-51.81N,139-59.22E,66,25.44,34.2071
206,2017/9/7,22:35:00,34-51.96N,139-59.63E,65,25.45,34.2157
207,2017/9/7,22:36:00,34-52.12N,140-00.05E,64,25.437,34.2213
208,2017/9/7,22:37:00,34-52.29N,140-00.45E,63,25.418,34.2241
209,2017/9/7,22:38:00,34-52.46N,140-00.86E,63,25.357,34.2289
210,2017/9/7,22:39:00,34-52.63N,140-01.26E,62,25.279,34.2221
211,2017/9/7,22:40:00,34-52.80N,140-01.66E,61,25.185,34.2021
212,2017/9/7,22:41:00,34-52.98N,140-02.05E,60,25.108,34.1751
213,2017/9/7,22:42:00,34-53.17N,140-02.45E,60,25.138,34.1595
214,2017/9/7,22:43:00,34-53.35N,140-02.83E,60,25.499,34.1455
215,2017/9/7,22:44:00,34-53.53N,140-03.22E,59,25.674,34.1939
216,2017/9/7,22:45:00,34-53.71N,140-03.60E,60,25.685,34.2524
217,2017/9/7,22:46:00,34-53.89N,140-03.98E,60,25.676,34.2628
218,2017/9/7,22:47:00,34-54.07N,140-04.37E,60,25.628,34.2702
219,2017/9/7,22:48:00,34-54.26N,140-04.75E,59,25.637,34.2604
220,2017/9/7,22:49:00,34-54.44N,140-05.14E,59,25.697,34.2515
221,2017/9/7,22:50:00,34-54.63N,140-05.51E,57,25.683,34.2543
222,2017/9/7,22:51:00,34-54.83N,140-05.88E,56,25.68,34.256
223,2017/9/7,22:52:00,34-55.02N,140-06.25E,57,25.715,34.2507
224,2017/9/7,22:53:00,34-55.22N,140-06.63E,57,25.738,34.2525
225,2017/9/7,22:54:00,34-55.41N,140-07.00E,57,25.752,34.258
226,2017/9/7,22:55:00,34-55.62N,140-07.38E,57,25.748,34.2612
227,2017/9/7,22:56:00,34-55.81N,140-07.75E,56,25.702,34.2604
228,2017/9/7,22:57:00,34-56.01N,140-08.12E,57,25.69,34.2556
229,2017/9/7,22:58:00,34-56.21N,140-08.51E,57,25.678,34.25
230,2017/9/7,22:59:00,34-56.41N,140-08.88E,57,25.631,34.2456
231,2017/9/7,23:00:00,34-56.60N,140-09.25E,57,25.594,34.2401
232,2017/9/7,23:01:00,34-56.80N,140-09.64E,57,25.57,34.2327
233,2017/9/7,23:02:00,34-57.00N,140-10.01E,56,25.565,34.2292
234,2017/9/7,23:03:00,34-57.19N,140-10.39E,58,25.564,34.2283
235,2017/9/7,23:04:00,34-57.39N,140-10.77E,58,25.556,34.2262
236,2017/9/7,23:05:00,34-57.58N,140-11.15E,57,25.543,34.2275
237,2017/9/7,23:06:00,34-57.78N,140-11.54E,58,25.527,34.2306
238,2017/9/7,23:07:00,34-57.98N,140-11.93E,58,25.523,34.2293
239,2017/9/7,23:08:00,34-58.17N,140-12.30E,58,25.564,34.233
240,2017/9/7,23:09:00,34-58.36N,140-12.69E,58,25.55,34.245
241,2017/9/7,23:10:00,34-58.56N,140-13.07E,57,25.584,34.243
242,2017/9/7,23:11:00,34-58.76N,140-13.46E,58,25.6,34.2429
243,2017/9/7,23:12:00,34-58.96N,140-13.84E,58,25.596,34.2481
244,2017/9/7,23:13:00,34-59.15N,140-14.22E,57,25.552,34.2468
245,2017/9/7,23:14:00,34-59.35N,140-14.61E,57,25.533,34.2455
246,2017/9/7,23:15:00,34-59.54N,140-14.99E,58,25.532,34.2374
247,2017/9/7,23:16:00,34-59.73N,140-15.36E,57,25.515,34.2345
248,2017/9/7,23:17:00,34-59.93N,140-15.75E,57,25.45,34.2311
249,2017/9/7,23:18:00,35-00.13N,140-16.12E,57,25.389,34.2155
250,2017/9/7,23:19:00,35-00.33N,140-16.51E,58,25.274,34.2008
251,2017/9/7,23:20:00,35-00.52N,140-16.88E,57,25.128,34.1864
252,2017/9/7,23:21:00,35-00.71N,140-17.26E,58,25.016,34.1652
253,2017/9/7,23:22:00,35-00.91N,140-17.64E,57,24.93,34.1429
254,2017/9/7,23:23:00,35-01.12N,140-18.00E,56,24.751,34.1266
255,2017/9/7,23:24:00,35-01.32N,140-18.38E,55,24.365,34.1023
256,2017/9/7,23:25:00,35-01.52N,140-18.73E,55,24.14,33.9926
257,2017/9/7,23:26:00,35-01.73N,140-19.10E,54,24.038,33.856
258,2017/9/7,23:27:00,35-01.94N,140-19.45E,54,24.045,33.7719
259,2017/9/7,23:28:00,35-02.15N,140-19.82E,54,23.701,33.7841
260,2017/9/7,23:29:00,35-02.35N,140-20.17E,54,23.631,33.6694
261,2017/9/7,23:30:00,35-02.56N,140-20.54E,55,23.653,33.5718
262,2017/9/7,23:31:00,35-02.77N,140-20.91E,54,23.693,33.5767
263,2017/9/7,23:32:00,35-02.98N,140-21.27E,55,23.664,33.6128
264,2017/9/7,23:33:00,35-03.19N,140-21.64E,54,23.602,33.6361
265,2017/9/7,23:34:00,35-03.39N,140-22.00E,55,23.551,33.6221
266,2017/9/7,23:35:00,35-03.60N,140-22.36E,55,23.451,33.6226
267,2017/9/7,23:36:00,35-03.80N,140-22.73E,56,23.383,33.6087
268,2017/9/7,23:37:00,35-04.00N,140-23.09E,56,23.392,33.533
269,2017/9/7,23:38:00,35-04.20N,140-23.46E,56,23.397,33.4858
270,2017/9/7,23:39:00,35-04.40N,140-23.83E,56,23.385,33.4705
271,2017/9/7,23:40:00,35-04.60N,140-24.20E,56,23.405,33.4719
272,2017/9/7,23:41:00,35-04.80N,140-24.57E,57,23.53,33.5094
273,2017/9/7,23:42:00,35-05.00N,140-24.95E,56,23.795,33.5897
274,2017/9/7,23:43:00,35-05.20N,140-25.31E,56,24.341,33.7623
275,2017/9/7,23:44:00,35-05.41N,140-25.69E,55,24.499,34.0136
276,2017/9/7,23:45:00,35-05.61N,140-26.06E,56,24.526,34.1535
277,2017/9/7,23:46:00,35-05.81N,140-26.42E,56,24.499,34.1798
278,2017/9/7,23:47:00,35-06.02N,140-26.81E,57,24.396,34.1859
279,2017/9/7,23:48:00,35-06.22N,140-27.17E,56,24.36,34.1774
280,2017/9/7,23:49:00,35-06.42N,140-27.55E,56,24.599,34.1667
281,2017/9/7,23:50:00,35-06.62N,140-27.92E,56,24.619,34.22
282,2017/9/7,23:51:00,35-06.82N,140-28.28E,56,24.634,34.234
283,2017/9/7,23:52:00,35-07.03N,140-28.66E,56,24.631,34.24
284,2017/9/7,23:53:00,35-07.23N,140-29.02E,56,24.64,34.2432
285,2017/9/7,23:54:00,35-07.43N,140-29.39E,55,24.6,34.2438
286,2017/9/7,23:55:00,35-07.63N,140-29.75E,56,24.539,34.2407
287,2017/9/7,23:56:00,35-07.83N,140-30.11E,55,24.498,34.2293
288,2017/9/7,23:57:00,35-08.03N,140-30.47E,56,24.478,34.2207
289,2017/9/7,23:58:00,35-08.23N,140-30.84E,55,24.375,34.2179
290,2017/9/7,23:59:00,35-08.43N,140-31.20E,56,24.333,34.2016
1,2017/9/8,0:00:00,35-08.63N,140-31.57E,56,24.306,34.1865
2,2017/9/8,0:01:00,35-08.83N,140-31.93E,56,24.324,34.1791
3,2017/9/8,0:02:00,35-09.03N,140-32.31E,57,24.329,34.1789
4,2017/9/8,0:03:00,35-09.22N,140-32.66E,55,24.359,34.1842
5,2017/9/8,0:04:00,35-09.44N,140-33.01E,53,24.414,34.1899
6,2017/9/8,0:05:00,35-09.66N,140-33.34E,48,24.539,34.2011
7,2017/9/8,0:06:00,35-09.95N,140-33.60E,33,24.655,34.2275
8,2017/9/8,0:07:00,35-10.24N,140-33.85E,36,24.77,34.2558
9,2017/9/8,0:08:00,35-10.54N,140-34.08E,28,24.884,34.2878
10,2017/9/8,0:09:00,35-10.86N,140-34.29E,27,25.012,34.3144
11,2017/9/8,0:10:00,35-11.18N,140-34.49E,27,25.054,34.3393
12,2017/9/8,0:11:00,35-11.50N,140-34.69E,27,25.094,34.3547
13,2017/9/8,0:12:00,35-11.82N,140-34.90E,27,25.047,34.3624
14,2017/9/8,0:13:00,35-12.14N,140-35.10E,27,24.897,34.3599
15,2017/9/8,0:14:00,35-12.46N,140-35.31E,27,24.955,34.3375
16,2017/9/8,0:15:00,35-12.78N,140-35.52E,28,24.976,34.3336
17,2017/9/8,0:16:00,35-13.10N,140-35.73E,28,24.817,34.3437
18,2017/9/8,0:17:00,35-13.42N,140-35.94E,28,24.695,34.3273
19,2017/9/8,0:18:00,35-13.73N,140-36.15E,28,24.756,34.2891
20,2017/9/8,0:19:00,35-14.04N,140-36.35E,28,24.54,34.2836
21,2017/9/8,0:20:00,35-14.36N,140-36.56E,28,24.379,34.2568
22,2017/9/8,0:21:00,35-14.66N,140-36.77E,29,24.172,34.1843
23,2017/9/8,0:22:00,35-14.98N,140-36.99E,29,24.045,34.0876
24,2017/9/8,0:23:00,35-15.28N,140-37.20E,29,23.956,34.0305
25,2017/9/8,0:24:00,35-15.59N,140-37.41E,30,23.909,34.0035
26,2017/9/8,0:25:00,35-15.90N,140-37.63E,29,23.899,33.9842
27,2017/9/8,0:26:00,35-16.20N,140-37.84E,30,23.919,33.9705
28,2017/9/8,0:27:00,35-16.50N,140-38.06E,29,23.985,33.9523
29,2017/9/8,0:28:00,35-16.81N,140-38.27E,30,24.003,33.9902
30,2017/9/8,0:29:00,35-17.10N,140-38.49E,29,24.036,34.0049
31,2017/9/8,0:30:00,35-17.41N,140-38.71E,29,24.068,34.0219
32,2017/9/8,0:31:00,35-17.72N,140-38.93E,31,24.134,34.0458
33,2017/9/8,0:32:00,35-18.02N,140-39.14E,29,24.235,34.0665
34,2017/9/8,0:33:00,35-18.33N,140-39.36E,30,24.227,34.117
35,2017/9/8,0:34:00,35-18.63N,140-39.58E,30,24.214,34.1478
36,2017/9/8,0:35:00,35-18.93N,140-39.80E,30,24.182,34.1496
37,2017/9/8,0:36:00,35-19.24N,140-40.02E,30,24.259,34.1349
38,2017/9/8,0:37:00,35-19.54N,140-40.23E,29,24.324,34.1435
39,2017/9/8,0:38:00,35-19.85N,140-40.44E,29,24.342,34.1532
40,2017/9/8,0:39:00,35-20.15N,140-40.65E,29,24.451,34.1457
41,2017/9/8,0:40:00,35-20.45N,140-40.86E,29,24.456,34.166
42,2017/9/8,0:41:00,35-20.77N,140-41.08E,29,24.415,34.1729
43,2017/9/8,0:42:00,35-21.08N,140-41.29E,29,24.401,34.1651
44,2017/9/8,0:43:00,35-21.38N,140-41.50E,29,24.611,34.161
45,2017/9/8,0:44:00,35-21.69N,140-41.71E,29,24.752,34.1938
46,2017/9/8,0:45:00,35-22.00N,140-41.92E,29,24.814,34.2436
47,2017/9/8,0:46:00,35-22.30N,140-42.13E,29,24.802,34.2681
48,2017/9/8,0:47:00,35-22.62N,140-42.35E,29,24.757,34.276
49,2017/9/8,0:48:00,35-22.92N,140-42.55E,29,24.715,34.2714
50,2017/9/8,0:49:00,35-23.23N,140-42.77E,29,24.393,34.2631
51,2017/9/8,0:50:00,35-23.54N,140-42.97E,25,24.114,34.2146
52,2017/9/8,0:51:00,35-23.85N,140-43.16E,29,23.707,34.151
53,2017/9/8,0:52:00,35-24.15N,140-43.40E,32,23.747,34.0546
54,2017/9/8,0:53:00,35-24.45N,140-43.62E,31,23.951,33.999
55,2017/9/8,0:54:00,35-24.75N,140-43.83E,31,23.937,34.034
56,2017/9/8,0:55:00,35-25.05N,140-44.06E,31,23.702,34.0605
57,2017/9/8,0:56:00,35-25.35N,140-44.29E,31,23.743,34.0162
58,2017/9/8,0:57:00,35-25.65N,140-44.51E,32,23.702,33.9952
59,2017/9/8,0:58:00,35-25.94N,140-44.76E,34,23.683,33.9912
60,2017/9/8,0:59:00,35-26.22N,140-45.00E,35,23.812,33.9763
61,2017/9/8,1:00:00,35-26.51N,140-45.25E,35,23.907,33.988
62,2017/9/8,1:01:00,35-26.81N,140-45.51E,35,23.866,34.0169
63,2017/9/8,1:02:00,35-27.09N,140-45.75E,35,23.745,34.017
64,2017/9/8,1:03:00,35-27.39N,140-46.01E,35,23.748,34.0084
65,2017/9/8,1:04:00,35-27.67N,140-46.26E,36,23.652,33.9769
66,2017/9/8,1:05:00,35-27.96N,140-46.51E,36,23.592,33.9674
67,2017/9/8,1:06:00,35-28.25N,140-46.77E,36,23.843,33.9431
68,2017/9/8,1:07:00,35-28.53N,140-47.02E,35,23.898,33.9683
69,2017/9/8,1:08:00,35-28.82N,140-47.29E,36,23.703,34.0036
70,2017/9/8,1:09:00,35-29.10N,140-47.54E,36,23.768,33.9836
71,2017/9/8,1:10:00,35-29.39N,140-47.80E,36,23.882,33.9519
72,2017/9/8,1:11:00,35-29.68N,140-48.06E,36,23.813,33.9812
73,2017/9/8,1:12:00,35-29.97N,140-48.32E,36,23.945,33.9922
74,2017/9/8,1:13:00,35-30.26N,140-48.58E,35,23.853,34.0011
75,2017/9/8,1:14:00,35-30.56N,140-48.84E,35,23.179,34.0165
76,2017/9/8,1:15:00,35-30.84N,140-49.09E,35,23.153,33.8434
77,2017/9/8,1:16:00,35-31.14N,140-49.35E,35,23.223,33.7836
78,2017/9/8,1:17:00,35-31.43N,140-49.60E,35,23.227,33.7828
79,2017/9/8,1:18:00,35-31.72N,140-49.85E,35,23.233,33.7923
80,2017/9/8,1:19:00,35-32.01N,140-50.11E,35,23.205,33.793
81,2017/9/8,1:20:00,35-32.31N,140-50.37E,35,23.184,33.7931
82,2017/9/8,1:21:00,35-32.60N,140-50.62E,35,23.137,33.7843
83,2017/9/8,1:22:00,35-32.90N,140-50.88E,35,23.028,33.7731
84,2017/9/8,1:23:00,35-33.20N,140-51.14E,35,22.956,33.7539
85,2017/9/8,1:24:00,35-33.48N,140-51.39E,35,22.932,33.7305
86,2017/9/8,1:25:00,35-33.78N,140-51.65E,35,22.794,33.7169
87,2017/9/8,1:26:00,35-34.06N,140-51.90E,35,22.695,33.695
88,2017/9/8,1:27:00,35-34.35N,140-52.17E,36,22.615,33.6687
89,2017/9/8,1:28:00,35-34.64N,140-52.42E,35,22.64,33.6493
90,2017/9/8,1:29:00,35-34.93N,140-52.67E,36,22.705,33.6413
91,2017/9/8,1:30:00,35-35.22N,140-52.93E,36,22.673,33.649
92,2017/9/8,1:31:00,35-35.50N,140-53.18E,36,22.713,33.6522
93,2017/9/8,1:32:00,35-35.78N,140-53.44E,35,22.706,33.663
94,2017/9/8,1:33:00,35-36.08N,140-53.69E,35,23.321,33.6721
95,2017/9/8,1:34:00,35-36.37N,140-53.93E,32,24.829,33.6952
96,2017/9/8,1:35:00,35-36.66N,140-54.16E,32,25.209,34.133
97,2017/9/8,1:36:00,35-36.97N,140-54.40E,31,25.345,34.3288
98,2017/9/8,1:37:00,35-37.27N,140-54.63E,32,25.337,34.3846
99,2017/9/8,1:38:00,35-37.58N,140-54.88E,32,25.25,34.4069
100,2017/9/8,1:39:00,35-37.89N,140-55.11E,32,25.282,34.3843
101,2017/9/8,1:40:00,35-38.19N,140-55.35E,32,25.334,34.3821
102,2017/9/8,1:41:00,35-38.50N,140-55.59E,32,25.468,34.3924
103,2017/9/8,1:42:00,35-38.81N,140-55.83E,32,25.424,34.4091
104,2017/9/8,1:43:00,35-39.11N,140-56.06E,32,25.381,34.4209
105,2017/9/8,1:44:00,35-39.42N,140-56.30E,32,25.403,34.3958
106,2017/9/8,1:45:00,35-39.76N,140-56.44E,11,25.044,34.4082
107,2017/9/8,1:46:00,35-40.11N,140-56.53E,11,25.021,34.3459
108,2017/9/8,1:47:00,35-40.47N,140-56.62E,11,24.934,34.3004
109,2017/9/8,1:48:00,35-40.83N,140-56.71E,11,24.763,34.2811
110,2017/9/8,1:49:00,35-41.19N,140-56.80E,11,24.594,34.2463
111,2017/9/8,1:50:00,35-41.55N,140-56.89E,11,24.132,34.1969